• Processing (Info)

  • MPEC 2010-J28 : COMET P/1999 J6 = 2004 V9 = 2010 H3 (SOHO)

    The following Minor Planet Electronic Circular may be linked-to from your own Web pages, but must not otherwise be redistributed electronically.

    A form allowing access to any MPEC is at the bottom of this page.


    Read MPEC 2010-J27 Read MPEC 2010-J29


    M.P.E.C. 2010-J28                                Issued 2010 May 6, 20:31 UT
    
         The Minor Planet Electronic Circulars contain information on unusual
             minor planets and routine data on comets.  They are published
       on behalf of Commission 20 of the International Astronomical Union by the
              Minor Planet Center, Smithsonian Astrophysical Observatory,
                              Cambridge, MA 02138, U.S.A.
    
                 Prepared using the Tamkin Foundation Computer Network
    
                                  MPC@CFA.HARVARD.EDU
           URL http://www.minorplanetcenter.org/iau/mpc.html  ISSN 1523-6714
    
                      COMET P/1999 J6 = 2004 V9 = 2010 H3 (SOHO)
    
    Additional Observations:
        PK10H030 4S2010 04 20.65545 06 56 53.6  +24 24 45                   EJ028C49
        PK10H030 4s2010 04 20.65545 2 +1.01736870 -0.40263497 -0.17250903   EJ028C49
        PK10H030 4S2010 04 20.71101 06 58 11.5  +24 28 35                   EJ028C49
        PK10H030 4s2010 04 20.71101 2 +1.01786780 -0.40173157 -0.17211643   EJ028C49
        PK10H030 4S2010 04 20.79434 06 59 55.3  +24 30 58                   EJ028C49
        PK10H030 4s2010 04 20.79434 2 +1.01861470 -0.40037558 -0.17152715   EJ028C49
        PK10H030 4S2010 04 20.82212 07 00 25.9  +24 31 17                   EJ028C49
        PK10H030 4s2010 04 20.82212 2 +1.01886320 -0.39992334 -0.17133062   EJ028C49
        PK10H030 4S2010 04 20.84990 07 01 04.8  +24 31 33                   EJ028C49
        PK10H030 4s2010 04 20.84990 2 +1.01911140 -0.39947098 -0.17113404   EJ028C49
        PK10H030 4S2010 04 20.87767 07 01 31.8  +24 32 40                   EJ028C49
        PK10H030 4s2010 04 20.87767 2 +1.01935940 -0.39901850 -0.17093740   EJ028C49
        PK10H030 4S2010 04 20.90545 07 02 07.2  +24 33 43                   EJ028C49
        PK10H030 4s2010 04 20.90545 2 +1.01960720 -0.39856591 -0.17074072   EJ028C49
        PK10H030 4S2010 04 21.01656 07 04 24.4  +24 34 52                   EJ028C49
        PK10H030 4s2010 04 21.01656 2 +1.02059600 -0.39675433 -0.16995347   EJ028C49
        PK10H030 4S2010 04 21.07212 07 05 27.9  +24 35 50                   EJ028C49
        PK10H030 4s2010 04 21.07212 2 +1.02108900 -0.39584782 -0.16955954   EJ028C49
        PK10H030 4S2010 04 21.09990 07 05 57.2  +24 35 52                   EJ028C49
        PK10H030 4s2010 04 21.09990 2 +1.02133510 -0.39539440 -0.16936250   EJ028C49
        PK10H030 4S2010 04 21.12767 07 06 26.1  +24 35 43                   EJ028C49
        PK10H030 4s2010 04 21.12767 2 +1.02158100 -0.39494085 -0.16916541   EJ028C49
        PK10H030 4S2010 04 21.21101 07 08 05.6  +24 37 41                   EJ028C49
        PK10H030 4s2010 04 21.21101 2 +1.02231730 -0.39357949 -0.16857383   EJ028C49
        PK10H030 4S2010 04 21.26656 07 09 04.7  +24 36 57                   EJ028C49
        PK10H030 4s2010 04 21.26656 2 +1.02280700 -0.39267133 -0.16817918   EJ028C49
        PK10H030 4S2010 04 21.29434 07 09 38.5  +24 38 42                   EJ028C49
        PK10H030 4s2010 04 21.29434 2 +1.02305150 -0.39221708 -0.16798179   EJ028C49
        PK10H030 4S2010 04 21.32212 07 10 06.0  +24 38 46                   EJ028C49
        PK10H030 4s2010 04 21.32212 2 +1.02329570 -0.39176270 -0.16778434   EJ028C49
        PK10H030 4S2010 04 21.34990 07 10 31.5  +24 38 57                   EJ028C49
        PK10H030 4s2010 04 21.34990 2 +1.02353980 -0.39130821 -0.16758684   EJ028C49
        PK10H030 4S2010 04 21.40545 07 11 38.0  +24 39 02                   EJ028C49
        PK10H030 4s2010 04 21.40545 2 +1.02402710 -0.39039887 -0.16719169   EJ028C49
        PK10H030 4S2010 04 21.43323 07 12 05.5  +24 39 16                   EJ028C49
        PK10H030 4s2010 04 21.43323 2 +1.02427040 -0.38994402 -0.16699404   EJ028C49
        PK10H030 4S2010 04 21.87767 07 19 24.7  +24 38 49                   EJ028C49
        PK10H030 4s2010 04 21.87767 2 +1.02813140 -0.38265058 -0.16382483   EJ028C49
        PK10H030 4S2010 04 21.90545 07 19 52.0  +24 39 33                   EJ028C49
        PK10H030 4s2010 04 21.90545 2 +1.02837070 -0.38219375 -0.16362633   EJ028C49
        PK10H030 4S2010 04 21.93323 07 20 22.3  +24 38 39                   EJ028C49
        PK10H030 4s2010 04 21.93323 2 +1.02860970 -0.38173681 -0.16342778   EJ028C49
        PK10H030 4S2010 04 21.96101 07 20 52.7  +24 38 55                   EJ028C49
        PK10H030 4s2010 04 21.96101 2 +1.02884860 -0.38127975 -0.16322918   EJ028C49
        PK10H030 4S2010 04 22.07212 07 22 29.1  +24 37 32                   EJ028C49
        PK10H030 4s2010 04 22.07212 2 +1.02980150 -0.37945036 -0.16243429   EJ028C49
        PK10H030 4S2010 04 22.09990 07 23 00.3  +24 37 15                   EJ028C49
        PK10H030 4s2010 04 22.09990 2 +1.03003910 -0.37899272 -0.16223544   EJ028C49
        PK10H030 4S2010 04 22.15545 07 23 54.8  +24 36 37                   EJ028C49
        PK10H030 4s2010 04 22.15545 2 +1.03051370 -0.37807710 -0.16183760   EJ028C49
        PK10H030 4S2010 04 22.32212 07 26 26.0  +24 34 39                   EJ028C49
        PK10H030 4s2010 04 22.32212 2 +1.03193170 -0.37532749 -0.16064289   EJ028C49
        PK10H030 4S2010 04 22.34990 07 26 47.7  +24 34 09                   EJ028C49
        PK10H030 4s2010 04 22.34990 2 +1.03216730 -0.37486882 -0.16044360   EJ028C49
        PK10H030 4S2010 04 22.37767 07 27 16.0  +24 34 40                   EJ028C49
        PK10H030 4s2010 04 22.37767 2 +1.03240250 -0.37441004 -0.16024426   EJ028C49
        PK10H030 4S2010 04 22.40545 07 27 39.9  +24 35 00                   EJ028C49
        PK10H030 4s2010 04 22.40545 2 +1.03263760 -0.37395114 -0.16004487   EJ028C49
        PK10H030 4S2010 04 22.43323 07 28 03.9  +24 33 39                   EJ028C49
        PK10H030 4s2010 04 22.43323 2 +1.03287230 -0.37349213 -0.15984543   EJ028C49
    
    Observer details:
    C49 STEREO-A.  STEREO-SECCHI instrument HI1-A.  Measurements by K. Battams,
        reductions by B. G. Marsden.
    
         The following nongravitational three-apparition linkage has been computed
    by the undersigned in partial collaboration with R. Kracht.  See also MPEC
    2004-X73 and 2010-H37.  The adopted nongravitational parameters are A1 = +0.31,
    A2 = -0.1892, and the 255 observations used are satisfied with mean residual
    17".4.
    
    Orbital elements:
        P/1999 J6 = 2004 V9 = 2010 H3 (SOHO)
    Epoch 1999 May 22.0 TT = JDT 2451320.5
    T 1999 May 11.58181 TT                                  MPC
    q   0.0492535            (2000.0)            P               Q
    n   0.17966481     Peri.   21.90952     -0.19665180     -0.87409821
    a   3.1104797      Node    81.73717     +0.81972936     -0.39511528
    e   0.9841653      Incl.   26.66811     +0.53793293     +0.28255308
    P   5.49
    
    Epoch 2004 Nov. 11.0 TT = JDT 2453320.5
    T 2004 Nov. 8.55843 TT                                  MPC
    q   0.0491728            (2000.0)            P               Q
    n   0.18054260     Peri.   22.01100     -0.19636038     -0.87464580
    a   3.1003895      Node    81.61896     +0.81954528     -0.39455656
    e   0.9841398      Incl.   26.61524     +0.53831974     +0.28163780
    P   5.46
    
